Tracking 18945 objects as of 19-Jan-2018
HD Live streaming from Space Station
objects crossing your sky now

FENGYUN 1C DEB

Track FENGYUN 1C DEB now!
10-day predictions


NORAD ID: 30177
Int'l Code: 1999-025UJ
Perigee: 705.2 km
Apogee: 1,414.2 km
Inclination: 98.6 °
Period: 106.2 minutes
Semi major axis: 7430 km
RCS: 0.0564 m2 (small)
Launch date: May 10, 1999
Source: People's Republic of China (PRC)
Launch site: Taiyaun Space Center, China (TSC)

Note: This is SATELLITE DEBRIS
aabbcc
Your satellite tracking list
Your tracking list is empty




NASA's NSSDC Master Catalog

Two Line Element Set (TLE):
1 30177U 99025UJ  18018.92422921 +.00000360 +00000-0 +27170-3 0  9991
2 30177 098.6341 273.3135 0477067 114.5336 308.4586 13.55363591543264
Source of the keplerian elements: AFSPC